Location: Castellv� de Rosan�s
(41.4496°N, 1.9004°E)
Time: 20:20:36
(UTC+00:00)

Daily predictions for brighter satellites

Satellite Brightness Start Highest point End
(mag) Time Altitude Azimuth Time Altitude Azimuth Time Altitude Azimuth
CZ-2C R/B 3.9 19:20:31 10° N 19:25:41 49° WNW 19:30:56 10° SW
Cosmos 1408 Rocket 3.6 19:21:53 10° N 19:26:18 70° E 19:30:42 10° SSE
Cosmos 1570 Rocket 4.0 19:21:02 10° NNW 19:26:18 76° ENE 19:31:30 10° SSE
Cosmos 1842 Rocket 3.6 19:23:08 10° S 19:27:34 71° E 19:32:03 10° NNE
Ariane Rocket 3.6 19:23:52 10° SE 19:28:31 39° ENE 19:33:13 10° N
Cosmos 921 Rocket 3.0 19:25:10 10° NNW 19:29:28 88° ENE 19:33:39 10° SSE
Meteor 2-2 Rocket 4.2 19:24:06 10° S 19:29:45 78° E 19:35:24 10° NNE
Cosmos 2263 Rocket 3.6 19:24:59 10° SW 19:30:15 43° WNW 19:35:35 10° NNE
IRIS 3.5 19:29:44 10° WSW 19:32:02 75° S 19:34:43 10° E
FALCON 9 DEB 3.7 19:29:42 10° NW 19:32:36 38° NNE 19:35:30 10° ESE
Cosmos 1606 3.2 19:30:04 10° SSE 19:33:33 38° E 19:37:04 10° NNE
Cosmos 1943 3.5 19:27:55 10° NNW 19:33:33 70° WSW 19:39:09 10° SSE
Helios 1A Rocket 3.4 19:30:14 10° S 19:34:19 66° WSW 19:38:28 10° NNW
Cosmos 1844 Rocket 3.0 19:29:56 10° S 19:35:09 43° ESE 19:40:24 10° NE
Cosmos 1814 Rocket 4.1 19:33:53 10° NNW 19:39:08 86° WSW 19:44:18 10° SSE
SL-4 R/B 2.7 19:36:49 10° NW 19:41:07 55° NNE 19:45:35 10° ESE
X-37B 1.7 19:40:37 10° WNW 19:43:41 42° N 19:46:45 10° ENE
Cosmos 1805 Rocket 4.5 19:40:06 10° NNE 19:43:56 30° ENE 19:47:34 11° SE
IRS-1A Rocket 4.4 19:44:14 10° SSE 19:49:54 68° ENE 19:55:43 10° N
Cosmos 1745 Rocket 4.4 19:47:09 10° N 19:53:04 44° ENE 19:58:40 11° SSE
SPOT 3 Rocket 4.3 19:49:01 11° SE 19:53:21 35° ENE 19:58:00 10° N
Cosmos 1844 3.9 19:49:46 10° S 19:55:18 52° ESE 20:00:49 10° NNE
Resurs 1-3 3.7 19:51:06 10° SSE 19:55:25 61° ENE 19:59:46 10° N
ERS-2 3.7 19:52:31 10° N 19:55:56 39° WNW 19:59:19 10° SW
Cosmos 968 Rocket 3.4 19:50:56 10° S 19:56:10 75° ESE 20:01:24 10° NNE
Cosmos 1743 Rocket 3.5 19:53:48 10° N 19:58:09 81° E 20:02:30 10° S
BREEZE-M DEB (TANK) 4.2 19:53:54 10° WNW 19:58:10 64° NNE 20:05:46 10° E
ATLAS 5 CENTAUR R/B 3.4 19:55:43 10° NNW 20:00:40 32° NE 20:05:41 13° ESE
Cosmos 1486 Rocket 4.0 19:58:24 10° S 20:03:41 70° ESE 20:09:00 10° NNE
IGS 5A 4.1 20:04:31 17° SE 20:07:17 39° ENE 20:11:10 10° N
Intercosmos 25 Rocket 3.9 20:01:09 10° N 20:07:31 73° E 20:11:06 13° SSE
Cosmos 2221 4.1 20:05:28 10° SW 20:09:27 37° WNW 20:13:30 10° N
S3M 4.1 20:03:45 10° S 20:10:03 64° E 20:16:19 10° NNE
Cosmos 1500 Rocket 3.8 20:05:44 10° NNW 20:10:07 73° W 20:14:27 10° S
BREEZE-M R/B 2.3 20:08:42 10° WSW 20:11:32 59° NNW 20:13:55 10° NE
USA 186 4.1 20:10:01 10° SW 20:11:50 17° W 20:13:36 10° NW
Cosmos 1666 Rocket 4.5 20:14:06 10° NNE 20:18:04 32° ENE 20:19:58 22° ESE
FALCON 9 DEB 3.1 20:15:47 10° WNW 20:18:45 56° SW 20:20:03 29° SSE
Cosmos 1933 3.4 20:17:12 14° S 20:20:35 57° E 20:24:33 10° NNE
USA 245 4.4 20:23:48 13° NE 20:23:48 13° NE 20:24:34 10° NE
FALCON 9 DEB 3.5 20:22:05 10° WNW 20:25:00 44° SW 20:26:05 29° S
Cosmos 1242 Rocket 2.6 20:24:03 22° SSE 20:26:08 53° E 20:29:38 10° NNE
OBJECT-B 3.2 20:23:51 10° SSW 20:26:26 22° W 20:29:02 10° NW
Cosmos 1553 Rocket 4.4 20:22:41 10° SSW 20:28:43 63° W 20:34:54 10° N
Cosmos 1437 Rocket 3.5 20:26:19 10° SSW 20:30:05 54° WNW 20:33:57 10° N
BREEZE M DEB (TANK) 4.3 20:26:36 10° WNW 20:31:28 25° NNW 20:33:48 10° NE
Resurs 01 Rocket 1.6 20:29:42 20° SSE 20:32:45 90° E 20:37:14 10° NNW
FALCON 9 DEB 3.3 20:30:54 10° WNW 20:33:51 49° SW 20:34:36 38° S
Spot 2 Rocket 4.2 20:34:12 25° ESE 20:36:27 38° ENE 20:41:06 10° N
SJ 16-02 3.5 20:38:19 11° ENE 20:38:19 11° ENE 20:38:53 10° ENE
DELTA 2 R/B (1) 3.6 20:33:28 10° W 20:38:58 64° SSW 20:41:51 28° ESE
Sich 1 3.0 20:36:06 10° N 20:40:27 84° W 20:43:00 24° S
Cosmos 2082 Rocket 4.3 20:40:35 10° NNE 20:43:30 14° NE 20:46:25 10° ENE
Meteor 1-20 Rocket 4.1 20:37:56 10° N 20:43:36 89° E 20:47:10 23° S
Cosmos 1782 2.8 20:43:16 36° SSE 20:44:40 57° E 20:48:35 10° NNE
BREEZE-M DEB (TANK) 3.8 20:43:05 10° W 20:45:07 22° SSW 20:45:34 22° SSW
CZ-4C R/B 3.8 20:39:26 10° NNW 20:46:04 38° NE 20:51:18 19° E
Cosmos 1500 4.2 20:43:44 10° NNE 20:47:02 28° ENE 20:47:10 28° E
ERS-1 Rocket 3.8 20:50:52 29° ESE 20:52:23 35° ENE 20:56:57 10° N
SPOT 5 3.8 20:52:52 30° ESE 20:54:23 36° ENE 20:59:07 10° N
Cosmos 1503 Rocket 4.1 20:49:23 10° SSW 20:54:31 74° WNW 20:59:44 10° NNE
Cosmos 1151 Rocket 2.9 20:58:03 31° S 21:00:03 89° ESE 21:04:28 10° N
Cosmos 1777 Rocket 4.2 20:58:39 37° SSE 21:00:07 48° ESE 21:05:07 10° NNE
USA 290 2.5 20:59:31 10° NNW 21:02:42 57° WSW 21:02:58 55° SW
Terra 2.8 21:02:23 28° E 21:03:13 30° ENE 21:07:21 10° N
Cosmos 1602 3.7 21:01:37 10° N 21:05:28 77° W 21:06:20 52° SSW
Cosmos 2278 Rocket 2.6 21:05:44 39° SE 21:06:38 42° ESE 21:11:54 10° NE
CZ-2C R/B 4.4 21:09:33 10° N 21:13:54 51° WNW 21:17:35 14° SW
Cosmos 1515 Rocket 3.5 21:17:35 59° ESE 21:17:48 60° E 21:22:09 10° NNE
SPOT 1/Viking Rocket 3.8 21:16:47 34° S 21:18:59 64° WSW 21:24:10 10° NNW
Cosmos 2084 3.3 21:17:53 36° SW 21:19:31 87° NW 21:23:45 10° NE
X-37B 1.4 21:17:28 10° WNW 21:20:09 50° NNW 21:20:09 50° NNW
SL-4 R/B 3.4 21:16:40 10° WNW 21:20:38 31° SW 21:21:08 30° SSW
ARIANE 5 R/B 2.5 21:20:40 61° S 21:21:23 83° WSW 21:25:45 10° NNW
Meteor 1-10 Rocket 4.4 21:22:59 46° ESE 21:23:39 48° E 21:29:02 10° NNE
Cosmos 1437 4.2 21:25:47 32° NNW 21:25:47 32° NNW 21:27:35 10° N
JB-3 4.3 21:23:41 10° N 21:27:35 72° WNW 21:27:56 66° WSW
Cosmos 1633 Rocket 3.8 21:26:02 10° NNW 21:30:16 49° W 21:31:23 39° SW
Cosmos 1812 2.8 21:31:31 74° N 21:31:31 74° N 21:35:05 10° N
Cosmos 1470 Rocket 3.6 21:35:06 10° NNW 21:39:35 70° W 21:39:56 66° SW
Cosmos 2184 Rocket 4.0 21:33:53 10° N 21:40:05 64° E 21:41:19 53° SE
Meteor 1-5 Rocket 3.9 21:35:46 10° N 21:41:12 87° E 21:42:00 65° SSE
CARTOSAT-1 4.1 21:44:08 48° WSW 21:44:30 49° W 21:48:43 10° NNW
ATLAS 5 CENTAUR R/B 2.8 21:39:53 10° NW 21:45:36 56° WSW 21:47:13 45° SSW
Cosmos 2074 Rocket 3.9 21:41:44 10° N 21:48:04 77° E 21:49:23 58° SSE
Nadezhda 1 Rocket 4.0 21:51:52 56° SE 21:52:39 60° E 21:58:48 10° NNE
Cosmos 1666 3.5 21:49:27 10° N 21:52:11 47° NNW 21:52:11 47° NNW
Cosmos 1933 Rocket 3.7 21:49:47 10° N 21:53:49 71° NW 21:53:49 71° NW
Cosmos 1833 Rocket 2.5 21:49:24 10° NNW 21:55:06 86° ENE 21:55:42 72° SE
ATLAS 2AS CENTAUR R/B 4.0 21:50:37 10° NNW 21:57:14 33° NE 22:00:32 23° E
Meteor 2-12 Rocket 4.3 21:52:20 10° N 21:58:22 67° E 21:59:02 62° ESE
Iridium 4 Rocket 4.0 22:01:47 51° SW 22:03:04 65° W 22:08:56 10° N
Cosmos 1538 Rocket 3.9 21:58:22 10° NNW 22:03:46 85° WSW 22:03:56 83° SSW
USA 305 4.2 22:00:37 10° NW 22:04:31 33° NNE 22:04:41 33° NNE
Cosmos 1610 Rocket 4.3 22:03:58 10° N 22:10:08 73° E 22:10:38 69° ESE
SJ 16-02 2.0 22:15:15 54° NW 22:15:15 54° NW 22:19:17 10° N
Cosmos 158 Rocket 4.0 22:11:07 10° NNW 22:15:27 66° NNE 22:15:27 66° NNE
Cosmos 2228 Rocket 3.6 22:17:34 56° NNW 22:17:34 56° NNW 22:21:12 10° N
Meteor 1-27 Rocket 3.6 22:18:37 83° S 22:18:53 89° E 22:24:49 10° N
Cosmos 1680 Rocket 4.1 22:16:32 10° N 22:21:27 46° ENE 22:21:27 46° ENE
Cosmos 2341 Rocket 4.4 22:16:38 10° N 22:22:49 49° ENE 22:23:08 48° E
USA 306 4.1 22:19:39 10° NW 22:23:04 39° N 22:23:04 39° N
COSMOS 2406 3.5 22:20:14 10° NNW 22:25:44 53° WSW 22:25:47 53° WSW
Cosmos 2082 Rocket 2.1 22:22:51 10° NNW 22:28:19 80° NNE 22:28:19 80° NNE
ERS-1 Rocket 4.4 22:30:51 26° WSW 22:31:13 27° W 22:35:27 10° NW
SPOT 5 4.4 22:32:05 26° WSW 22:32:29 27° W 22:36:50 10° NW
Milstar 3 4.4 22:23:01 10° WSW 22:29:42 29° SW 22:29:42 29° SW
CZ-4C R/B 3.2 22:27:41 10° NW 22:35:06 62° WSW 22:36:28 55° SSW
Terra 3.3 22:41:15 28° W 22:41:15 28° W 22:45:02 10° NW
Meteor 1-11 Rocket 4.3 22:39:13 10° NNW 22:44:59 52° W 22:45:14 51° WSW
USA 307 4.5 22:44:55 10° NW 22:47:31 34° NNW 22:47:31 34° NNW
Cosmos 2278 Rocket 3.8 22:47:29 17° WSW 22:50:49 30° NW 22:55:45 10° N
Spot 4 4.5 22:53:27 54° N 22:53:27 54° N 22:57:14 10° N
Cosmos 1898 Rocket 3.9 22:57:39 61° N 22:57:39 61° N 23:02:05 10° NNE
Cosmos 2369 Rocket 3.6 23:03:27 27° ENE 23:03:27 27° ENE 23:06:32 10° NE
Cosmos 1943 Rocket 2.6 23:11:55 57° NE 23:11:55 57° NE 23:16:22 10° NNE
Meteor 2-9 Rocket 4.5 23:05:27 10° N 23:10:34 65° NNE 23:10:34 65° NNE
SL-8 Rocket 3.9 23:05:25 10° N 23:11:34 84° N 23:11:34 84° N
ALOS 2 4.0 23:16:05 36° N 23:16:05 36° N 23:18:47 10° N
Meteor 2-4 Rocket 4.3 23:20:31 50° NE 23:20:31 50° NE 23:25:05 10° NNE
Cosmos 44 4.1 23:16:25 10° NNW 23:20:48 55° N 23:20:48 55° N
NOSS 3-4 (A) 4.4 23:28:04 10° NW 23:34:27 46° WSW 23:34:27 46° WSW
NOSS 3-4 (C) 4.3 23:28:10 10° NW 23:34:34 47° WSW 23:34:34 47° WSW
Cosmos 1238 Rocket 4.4 23:31:15 10° NNW 23:36:39 50° WNW 23:36:39 50° WNW
SeaSat 1 3.6 23:35:13 10° NNE 23:38:19 38° NE 23:38:19 38° NE
USA 215 3.5 23:42:20 50° E 23:43:57 65° NE 23:50:25 10° NW
ATLAS 2AS CENTAUR R/B 2.9 23:41:31 10° NW 23:47:57 59° W 23:47:57 59° W
